カタログに戻る

STARLINK-31884

運用中通信VLEO
NORAD 59676·PAYLOAD·🇺🇸 United States

打ち上げ May 6, 2024 から Cape Canaveral Space Force Station

Loading…

次のパス (今後24時間)

TLE

最新Source: CelesTrak SupGP

元期: Sep 15, 2026, 02:24 UTC

1 59676C 24084Y   26258.10048611 -.00027794  00000+0 -10065-2 0  2587
2 59676  43.0010  52.0860 0001489 269.7777  11.2016 15.27599834    16

AllMySatでSTARLINK-31884をリアルタイム追跡

Download on the App Store